Weather Roundup
Issued by NWS Springfield, MO

Home | Current Version | Previous Version | Text Only | Print | Product List | Glossary On
Versions: 1 2 3 4 5 6 7 8 9 10 11 12 13 14 15 16 17 18 19 20 21 22 23 24 25 26 27 28 29 30 31 32 33 34 35 36 37 38 39 40 41 42 43 44 45 46 47 48 49 50
000
NZUS99 KSGF 290759
HRRSGF

HOURLY WEATHER
NATIONAL WEATHER SERVICE SPRINGFIELD MO
200 AM CST THU JAN 29 2015

......SGF CWA......

CITY           SKY/WX    TMP DP  RH WIND       PRES   REMARKS
SPRINGFIELD    MOCLDY    60  38  43 W17G25    29.90R
JOPLIN         MOCLDY    55  36  48 NW12      29.97R
WEST PLAINS    CLOUDY    51  39  63 SW8       29.90R
ROLLA          MOCLDY    50  39  66 SW14      29.80R
OSAGE BEACH    PTCLDY    57  39  51 W10G17    29.83R

......SURROUNDING SGF CWA......

CITY           SKY/WX    TMP DP  RH WIND       PRES   REMARKS
CHANUTE        CLEAR     53  34  48 NW14      30.00R
PARSONS        CLEAR     54  34  46 NW10      30.00R
COFFEYVILLE    PTCLDY    56  33  42 NW9       30.00R
EMPORIA        CLEAR     49  32  52 W14       30.03R
SILOAM SPRINGS CLOUDY    55  37  50 W7        30.00R
HARRISON AR    CLOUDY    64  42  44 SW13G28   29.91S
NEAR YELLVILLE MOCLDY    59  41  51 SW10      29.90S

......KANSAS AND MISSOURI......

CITY           SKY/WX    TMP DP  RH WIND       PRES   REMARKS
KANSAS CTY INT MOCLDY    46  37  71 NW15G26   29.94R
DOWNTOWN KC    PTCLDY    48  37  65 NW12G23   29.96R
COLUMBIA       CLEAR     54  40  59 W15G24    29.79R
SEDALIA        CLEAR     52  37  56 NW21G36   29.87R
ST JOSEPH      CLOUDY    45  36  70 N26G39    29.98R
ST LOUIS       CLOUDY    54  39  57 SW15      29.78R
SPIRIT OF STL  CLOUDY    53  39  59 SW10      29.77S
KIRKSVILLE     LGT RAIN  43  36  76 NW20G38   29.81R
WICHITA        PTCLDY    51  30  44 NW16      30.08R
TOPEKA         CLEAR     49  35  58 NW15      30.01R
OLATHE         CLEAR     48  37  65 NW17G24   29.95R

......TENNESSEE......

CITY           SKY/WX    TMP DP  RH WIND       PRES   REMARKS
MEMPHIS        MOCLDY    58  37  45 S15       30.05S
NASHVILLE      CLOUDY    46  27  47 S15       30.11F

......ARKANSAS.......

CITY           SKY/WX    TMP DP  RH WIND       PRES   REMARKS
FAYETTEVILLE   CLOUDY    60  42  51 SW12      29.98R
FT SMITH       PTCLDY    45  41  86 CALM      29.97F
LITTLE ROCK    CLOUDY    59  40  49 SW18G28   30.01S

......OKLAHOMA.......

CITY           SKY/WX    TMP DP  RH WIND       PRES   REMARKS
TULSA          PTCLDY    59  35  40 NW10      30.01R
PONCA CITY     CLEAR     53  32  44 N13       30.07R
MCALESTER      PTCLDY    56  42  59 SW5       30.02R
OKLAHOMA CITY  MOCLDY    59  34  39 NW15      30.09R

......IOWA............

CITY           SKY/WX    TMP DP  RH WIND       PRES   REMARKS
DES MOINES     CLOUDY    37  31  78 N17G35    29.90R WCI  27
QUAD CITIES    PTCLDY    37  31  78 NW5       29.67R WCI  33

......ILLINOIS........

CITY           SKY/WX    TMP DP  RH WIND       PRES   REMARKS
QUINCY         PTCLDY    50  37  61 W18G30    29.72R
CHICAGO        CLOUDY    35  26  69 S10       29.75F WCI  27



USA.gov is the U.S. government's official web portal to all federal, state and local government web resources and services.